Fargo, ND

3:45 PM CST on January 20, 2017 (GMT -0600)
Hector International

Weather History for KFAR - September, 2013

Change the Weather History Date:

Monday, September 16, 2013

  Actual Average Record
Temperature  
Mean Temperature 58 °F 59 °F  
Max Temperature 69 °F 71 °F 93 °F (1979)
Min Temperature 46 °F 47 °F 26 °F (1973)
Degree Days  
Heating Degree Days 7 7  
Month to date heating degree days 39 79  
Since 1 July heating degree days 73 129  
Cooling Degree Days 0 1  
Month to date cooling degree days 55 34  
Year to date cooling degree days 673 539  
Growing Degree Days 6 (Base 50)    
Moisture  
Dew Point 44 °F    
Average Humidity 62    
Maximum Humidity 86    
Minimum Humidity 37    
Precipitation  
Precipitation 0.00 in 0.09 in 0.99 in (1992)
Month to date precipitation 2.98 1.53  
Year to date precipitation 24.90 17.59  
Snow  
Snow 0.00 in 0.00 in 0.00 in ()
Month to date snowfall 0.0 0.0  
Since 1 July snowfall 0.0 0.0  
Since 1 September snowfall 0.0 0.0  
Snow Depth 0.00 in    
Sea Level Pressure  
Sea Level Pressure 30.27 in    
Wind  
Wind Speed 11 mph (SSE)    
Max Wind Speed 18 mph    
Max Gust Speed 25 mph    
Visibility 10 miles    
Events      
T = Trace of Precipitation, MM = Missing Value Source: NWS Daily Summary

Daily Weather History Graph

Daily Weather History Graph

Search for Another Location

Airport or City:

Trip Planner

Search our weather history database for the weather conditions in past years. The results will help you decide how hot, cold, wet, or windy it might be!

Date:

Astronomy

Sep. 16, 2013 Rise Set
Actual Time 7:06 AM CDT 7:36 PM CDT
Civil Twilight 6:36 AM CDT 8:06 PM CDT
Nautical Twilight 5:59 AM CDT 8:42 PM CDT
Astronomical Twilight 5:22 AM CDT 9:20 PM CDT
Moon 5:53 PM CDT (9/16) 3:44 AM CDT (9/16)
Length of Visible Light 13h 30m
Length of Day
12h 29m
Waxing Gibbous, 90% of the Moon is Illuminated
Sep 16
Waxing Gibbous
Sep 19
Full
Sep 26
Last Quarter
Oct 4
New
Oct 11
First Quarter

Hourly Weather History & Observations

Time (CDT) Temp. Windchill Dew Point Humidity Pressure Visibility Wind Dir Wind Speed Gust Speed Precip Events Conditions
12:53 AM 46.0 °F 44.8 °F 41.0 °F 83% 30.34 in 10.0 mi ESE 3.5 mph - N/A   Clear
1:53 AM 46.0 °F 43.9 °F 42.1 °F 86% 30.34 in 10.0 mi SE 4.6 mph - N/A   Clear
2:53 AM 48.9 °F - 43.0 °F 80% 30.34 in 10.0 mi SSE 6.9 mph - N/A   Clear
3:53 AM 50.0 °F - 43.0 °F 77% 30.34 in 10.0 mi SSE 10.4 mph - N/A   Clear
4:53 AM 48.9 °F - 44.1 °F 83% 30.35 in 10.0 mi SSE 8.1 mph - N/A   Clear
5:53 AM 48.0 °F - 44.1 °F 86% 30.34 in 10.0 mi SSE 5.8 mph - N/A   Clear
6:53 AM 46.9 °F - 43.0 °F 86% 30.35 in 10.0 mi SSE 4.6 mph - N/A   Clear
7:53 AM 48.0 °F - 44.1 °F 86% 30.36 in 10.0 mi SE 6.9 mph - N/A   Clear
8:53 AM 52.0 °F - 46.0 °F 80% 30.36 in 10.0 mi SSE 9.2 mph - N/A   Clear
9:53 AM 55.0 °F - 48.0 °F 77% 30.36 in 10.0 mi South 8.1 mph - N/A   Clear
10:53 AM 59.0 °F - 48.9 °F 69% 30.35 in 10.0 mi SSE 11.5 mph - N/A   Clear
11:53 AM 62.1 °F - 48.9 °F 62% 30.33 in 10.0 mi South 11.5 mph - N/A   Clear
12:53 PM 64.0 °F - 48.9 °F 58% 30.32 in 10.0 mi South 15.0 mph - N/A   Clear
1:53 PM 66.9 °F - 48.9 °F 52% 30.29 in 10.0 mi South 11.5 mph - N/A   Clear
2:53 PM 68.0 °F - 48.0 °F 49% 30.26 in 10.0 mi SSE 15.0 mph 20.7 mph N/A   Clear
3:53 PM 68.0 °F - 46.0 °F 45% 30.22 in 10.0 mi South 13.8 mph 20.7 mph N/A   Clear
4:53 PM 69.1 °F - 44.1 °F 40% 30.19 in 10.0 mi SSE 17.3 mph 23.0 mph N/A   Clear
5:53 PM 68.0 °F - 41.0 °F 37% 30.18 in 10.0 mi SSE 15.0 mph 23.0 mph N/A   Clear
6:53 PM 66.0 °F - 42.1 °F 42% 30.16 in 10.0 mi SSE 11.5 mph 18.4 mph N/A   Clear
7:53 PM 62.1 °F - 37.0 °F 39% 30.14 in 10.0 mi SE 12.7 mph 19.6 mph N/A   Clear
8:53 PM 61.0 °F - 39.0 °F 44% 30.14 in 10.0 mi SSE 13.8 mph 20.7 mph N/A   Clear
9:53 PM 59.0 °F - 42.1 °F 53% 30.12 in 10.0 mi SSE 15.0 mph 23.0 mph N/A   Clear
10:53 PM 57.0 °F - 44.1 °F 62% 30.12 in 10.0 mi SSE 16.1 mph - N/A   Clear
11:53 PM 55.9 °F - 45.0 °F 67% 30.12 in 10.0 mi SSE 12.7 mph 21.9 mph N/A   Clear